Time,TemperatureF,DewpointF,PressureIn,WindDirection,WindDirectionDegrees,WindSpeedMPH,WindSpeedGustMPH,Humidity,HourlyPrecipIn,Conditions,Clouds,dailyrainin,SolarRadiationWatts/m^2,SoftwareType,DateUTC
2013-07-18 10:43:00,59.0,50.0,-100.00,ENE,73,1.0,3.0,73,-99.99,,,0.00,198.000000,,2013-07-18 18:43:00,
2013-07-18 10:52:00,59.0,50.0,-100.00,ENE,73,1.0,3.0,73,-99.99,,,0.00,198.000000,,2013-07-18 18:52:00,
2013-07-18 11:01:00,59.0,50.0,-100.00,ENE,73,1.0,3.0,73,-99.99,,,0.00,198.000000,,2013-07-18 19:01:00,
2013-07-18 11:11:00,59.0,50.0,-100.00,ENE,73,1.0,3.0,73,-99.99,,,0.00,198.000000,,2013-07-18 19:11:00,
2013-07-18 11:22:00,59.0,50.0,-100.00,ENE,73,1.0,3.0,73,-99.99,,,0.00,198.000000,,2013-07-18 19:22:00,
2013-07-18 11:53:00,63.0,50.0,-100.00,SE,132,1.0,3.0,64,0.00,,,0.00,447.000000,,2013-07-18 19:53:00,
2013-07-18 12:01:00,63.0,50.0,-100.00,SE,132,1.0,3.0,64,0.00,,,0.00,447.000000,,2013-07-18 20:01:00,
2013-07-18 12:11:00,63.0,50.0,-100.00,SE,132,1.0,3.0,64,0.00,,,0.00,447.000000,,2013-07-18 20:11:00,
2013-07-18 12:21:00,63.0,50.0,-100.00,SE,132,1.0,3.0,64,0.00,,,0.00,447.000000,,2013-07-18 20:21:00,
2013-07-18 12:43:00,66.0,51.0,-100.00,SE,135,2.0,4.0,59,0.00,,,0.00,686.000000,,2013-07-18 20:43:00,
2013-07-18 12:52:00,66.0,51.0,-100.00,SE,135,2.0,4.0,59,0.00,,,0.00,686.000000,,2013-07-18 20:52:00,
2013-07-18 13:01:00,66.0,51.0,-100.00,SE,135,2.0,4.0,59,0.00,,,0.00,686.000000,,2013-07-18 21:01:00,
2013-07-18 13:11:00,66.0,51.0,-100.00,SE,135,2.0,4.0,59,0.00,,,0.00,686.000000,,2013-07-18 21:11:00,
2013-07-18 13:22:00,66.0,51.0,-100.00,SE,135,2.0,4.0,59,0.00,,,0.00,686.000000,,2013-07-18 21:22:00,
2013-07-18 13:52:00,66.0,51.0,-100.00,SE,139,2.0,4.0,59,0.00,,,0.00,647.000000,,2013-07-18 21:52:00,
2013-07-18 14:01:00,66.0,51.0,-100.00,SE,139,2.0,4.0,59,0.00,,,0.00,647.000000,,2013-07-18 22:01:00,
2013-07-18 14:11:00,66.0,51.0,-100.00,SE,139,2.0,4.0,59,0.00,,,0.00,647.000000,,2013-07-18 22:11:00,
2013-07-18 14:21:00,66.0,51.0,-100.00,SE,139,2.0,4.0,59,0.00,,,0.00,647.000000,,2013-07-18 22:21:00,
2013-07-18 14:43:00,68.0,52.0,-100.00,ESE,121,3.0,6.0,57,0.00,,,0.00,713.000000,,2013-07-18 22:43:00,
2013-07-18 14:53:00,68.0,52.0,-100.00,ESE,121,3.0,6.0,57,0.00,,,0.00,713.000000,,2013-07-18 22:53:00,
2013-07-18 15:01:00,68.0,52.0,-100.00,ESE,121,3.0,6.0,57,0.00,,,0.00,713.000000,,2013-07-18 23:01:00,
2013-07-18 15:11:00,68.0,52.0,-100.00,ESE,121,3.0,6.0,57,0.00,,,0.00,713.000000,,2013-07-18 23:11:00,
2013-07-18 15:22:00,68.0,52.0,-100.00,ESE,121,3.0,6.0,57,0.00,,,0.00,713.000000,,2013-07-18 23:22:00,
2013-07-18 15:42:00,68.0,52.0,-100.00,ESE,114,3.0,7.0,56,0.00,,,0.00,735.000000,,2013-07-18 23:42:00,
2013-07-18 15:52:00,68.0,52.0,-100.00,ESE,114,3.0,7.0,56,0.00,,,0.00,735.000000,,2013-07-18 23:52:00,
2013-07-18 16:01:00,68.0,52.0,-100.00,ESE,114,3.0,7.0,56,0.00,,,0.00,735.000000,,2013-07-19 00:01:00,
2013-07-18 16:11:00,68.0,52.0,-100.00,ESE,114,3.0,7.0,56,0.00,,,0.00,735.000000,,2013-07-19 00:11:00,
2013-07-18 16:22:00,68.0,52.0,-100.00,ESE,114,3.0,7.0,56,0.00,,,0.00,735.000000,,2013-07-19 00:22:00,
2013-07-18 16:43:00,68.0,51.0,-100.00,East,92,3.0,5.0,55,0.00,,,-99.99,716.000000,,2013-07-19 00:43:00,
2013-07-18 16:52:00,68.0,51.0,-100.00,East,92,3.0,5.0,55,0.00,,,-99.99,716.000000,,2013-07-19 00:52:00,
2013-07-18 17:01:00,68.0,51.0,-100.00,East,92,3.0,5.0,55,0.00,,,-99.99,716.000000,,2013-07-19 01:01:00,
2013-07-18 17:11:00,68.0,51.0,-100.00,East,92,3.0,5.0,55,0.00,,,-99.99,716.000000,,2013-07-19 01:11:00,
2013-07-18 17:21:00,68.0,51.0,-100.00,East,92,3.0,5.0,55,0.00,,,-99.99,716.000000,,2013-07-19 01:21:00,
2013-07-18 17:42:00,68.0,53.0,-100.00,ESE,106,2.0,4.0,58,0.00,,,0.00,468.000000,,2013-07-19 01:42:00,
2013-07-18 17:52:00,68.0,53.0,-100.00,ESE,106,2.0,4.0,58,0.00,,,0.00,468.000000,,2013-07-19 01:52:00,
2013-07-18 18:01:00,68.0,53.0,-100.00,ESE,106,2.0,4.0,58,0.00,,,0.00,468.000000,,2013-07-19 02:01:00,
2013-07-18 18:11:00,68.0,53.0,-100.00,ESE,106,2.0,4.0,58,0.00,,,0.00,468.000000,,2013-07-19 02:11:00,
2013-07-18 18:22:00,68.0,53.0,-100.00,ESE,106,2.0,4.0,58,0.00,,,0.00,468.000000,,2013-07-19 02:22:00,
2013-07-18 18:52:00,66.0,53.0,-100.00,East,86,2.0,4.0,63,0.00,,,0.00,293.000000,,2013-07-19 02:52:00,
2013-07-18 19:01:00,66.0,53.0,-100.00,East,86,2.0,4.0,63,0.00,,,0.00,293.000000,,2013-07-19 03:01:00,
2013-07-18 19:11:00,66.0,53.0,-100.00,East,86,2.0,4.0,63,0.00,,,0.00,293.000000,,2013-07-19 03:11:00,
2013-07-18 19:22:00,66.0,53.0,-100.00,East,86,2.0,4.0,63,0.00,,,0.00,293.000000,,2013-07-19 03:22:00,
2013-07-18 19:52:00,63.0,52.0,-100.00,East,87,2.0,5.0,69,0.00,,,0.00,122.000000,,2013-07-19 03:52:00,
2013-07-18 20:02:00,63.0,52.0,-100.00,East,87,2.0,5.0,69,0.00,,,0.00,122.000000,,2013-07-19 04:02:00,
2013-07-18 20:11:00,63.0,52.0,-100.00,East,87,2.0,5.0,69,0.00,,,0.00,122.000000,,2013-07-19 04:11:00,
2013-07-18 20:21:00,63.0,52.0,-100.00,East,87,2.0,5.0,69,0.00,,,0.00,122.000000,,2013-07-19 04:21:00,
2013-07-18 20:44:00,61.0,51.0,-100.00,East,92,1.0,3.0,71,0.00,,,0.00,37.000000,,2013-07-19 04:44:00,
2013-07-18 20:52:00,61.0,51.0,-100.00,East,92,1.0,3.0,71,0.00,,,0.00,37.000000,,2013-07-19 04:52:00,
2013-07-18 21:02:00,61.0,51.0,-100.00,East,92,1.0,3.0,71,0.00,,,0.00,37.000000,,2013-07-19 05:02:00,
2013-07-18 21:11:00,61.0,51.0,-100.00,East,92,1.0,3.0,71,0.00,,,0.00,37.000000,,2013-07-19 05:11:00,
2013-07-18 21:21:00,61.0,51.0,-100.00,East,92,1.0,3.0,71,0.00,,,0.00,37.000000,,2013-07-19 05:21:00,
2013-07-18 21:53:00,61.0,53.0,-100.00,ENE,69,1.0,3.0,76,0.00,,,0.00,16.000000,,2013-07-19 05:53:00,
2013-07-18 22:01:00,61.0,53.0,-100.00,ENE,69,1.0,3.0,76,0.00,,,0.00,16.000000,,2013-07-19 06:01:00,
2013-07-18 22:11:00,61.0,53.0,-100.00,ENE,69,1.0,3.0,76,0.00,,,0.00,16.000000,,2013-07-19 06:11:00,
2013-07-18 22:22:00,61.0,53.0,-100.00,ENE,69,1.0,3.0,76,0.00,,,0.00,16.000000,,2013-07-19 06:22:00,
2013-07-18 22:52:00,59.0,54.0,-100.00,NE,55,0.0,3.0,85,0.00,,,0.00,1.000000,,2013-07-19 06:52:00,
2013-07-18 23:01:00,59.0,54.0,-100.00,NE,55,0.0,3.0,85,0.00,,,0.00,1.000000,,2013-07-19 07:01:00,
2013-07-18 23:12:00,59.0,54.0,-100.00,NE,55,0.0,3.0,85,0.00,,,0.00,1.000000,,2013-07-19 07:12:00,
2013-07-18 23:22:00,59.0,54.0,-100.00,NE,55,0.0,3.0,85,0.00,,,0.00,1.000000,,2013-07-19 07:22:00,
2013-07-18 23:43:00,54.0,51.0,-100.00,West,268,0.0,1.0,91,0.00,,,-99.99,0.000000,,2013-07-19 07:43:00,
2013-07-18 23:53:00,54.0,51.0,-100.00,West,268,0.0,1.0,91,0.00,,,-99.99,0.000000,,2013-07-19 07:53:00,